Location: Clatteringshaws Loch
(55.0508°N, 4.2860°W)
Time: 08:35:54
(UTC+00:00)

SR - Visible Passes

Search period start: 22 February 2018 00:00
Search period end: 04 March 2018 00:00
Orbit: 582 x 875 km, 66.7° (Epoch: 20 February)

Date Brightness Start Highest point End Pass type
(mag) Time Alt. Az. Time Alt. Az. Time Alt. Az.
22 Feb ? 04:09:55 46° NE 04:09:55 46° NE 04:13:07 10° NE visible
22 Feb ? 05:49:20 20° WNW 05:51:14 28° NNW 05:55:10 10° NE visible
23 Feb ? 03:21:42 23° ENE 03:21:42 23° ENE 03:23:29 10° NE visible
23 Feb ? 05:01:06 38° NW 05:01:24 39° NNW 05:05:38 10° NE visible
23 Feb ? 06:41:20 10° WNW 06:44:37 20° N 06:48:02 10° NE visible
24 Feb ? 02:33:26 11° ENE 02:33:26 11° ENE 02:33:39 10° ENE visible
24 Feb ? 04:12:51 43° NNE 04:12:51 43° NNE 04:16:07 10° NE visible
24 Feb ? 05:52:15 15° WNW 05:54:36 23° NNW 05:58:16 10° NE visible
25 Feb ? 03:24:34 26° NE 03:24:34 26° NE 03:26:35 10° NE visible
25 Feb ? 05:03:58 27° NW 05:04:40 29° NNW 05:08:39 10° NE visible
26 Feb ? 02:36:15 14° NE 02:36:15 14° NE 02:36:56 10° NE visible
26 Feb ? 04:15:40 36° N 04:15:40 36° N 04:19:07 10° NE visible
26 Feb ? 05:55:04 11° NW 05:58:02 20° N 06:01:30 10° NE visible
27 Feb ? 03:27:20 28° NNE 03:27:20 28° NNE 03:29:36 10° NE visible
27 Feb ? 05:06:44 21° NW 05:08:01 23° NNW 05:11:44 10° NE visible
28 Feb ? 02:38:59 17° NE 02:38:59 17° NE 02:40:02 10° NE visible
28 Feb ? 04:18:23 29° NNW 04:18:23 29° NNW 04:22:07 10° NE visible
28 Feb ? 05:58:13 10° NW 06:01:30 19° N 06:04:56 10° NE visible
01 Mar ? 03:30:02 28° NNE 03:30:02 28° NNE 03:32:35 10° NE visible
01 Mar ? 05:09:26 16° NW 05:11:27 20° N 05:14:58 10° NE visible
02 Mar ? 02:41:39 19° NE 02:41:39 19° NE 02:43:04 10° NE visible
02 Mar ? 04:21:03 24° NNW 04:21:27 24° NNW 04:25:12 10° NE visible
02 Mar ? 06:01:35 10° NW 06:04:58 20° N 06:08:32 10° NE visible
03 Mar ? 01:53:16 11° NE 01:53:16 11° NE 01:53:31 10° NE visible
03 Mar ? 03:32:40 27° N 03:32:40 27° N 03:35:36 10° NE visible
03 Mar ? 05:12:04 12° NW 05:14:55 20° N 05:18:22 10° NE visible
